Beaufort, NC

1:46 PM EST on December 06, 2019 (GMT -0500)
Smith

Weather History for KMRH - October, 2019

Change the Weather History Date:

Saturday, October 5, 2019

  Actual Average Record
Temperature  
Mean Temperature 72 °F -  
Max Temperature 77 °F 78 °F 95 °F (1986)
Min Temperature 68 °F 59 °F 38 °F (1974)
Cooling Degree Days 6    
Growing Degree Days 22 (Base 50)    
Moisture  
Dew Point 59 °F    
Average Humidity 65    
Maximum Humidity 78    
Minimum Humidity 57    
Precipitation  
Precipitation 0.00 in - - ()
Sea Level Pressure  
Sea Level Pressure 30.20 in    
Wind  
Wind Speed 12 mph (NE)    
Max Wind Speed 18 mph    
Max Gust Speed 29 mph    
Visibility 10 miles    
Events      
Averages and records for this station are not official NWS values.
T = Trace of Precipitation, MM = Missing Value Source: NWS Daily Summary

Daily Weather History Graph

Daily Weather History Graph

Search for Another Location

Airport or City:

Astronomy

Oct. 05, 2019 Rise Set
Actual Time 7:04 AM EDT 6:45 PM EDT
Civil Twilight 6:38 AM EDT 7:10 PM EDT
Nautical Twilight 6:09 AM EDT 7:39 PM EDT
Astronomical Twilight 5:40 AM EDT 8:09 PM EDT
Moon 2:14 PM EDT (10/5) No Moon Set
Length of Visible Light 12h 31m
Length of Day
11h 41m
Waxing Crescent, 50% of the Moon is Illuminated
Oct 5
Waxing Crescent
Oct 5
First Quarter
Oct 13
Full
Oct 21
Last Quarter
Oct 27
New

Hourly Weather History & Observations

Time (EDT) Temp. Dew Point Humidity Pressure Visibility Wind Dir Wind Speed Gust Speed Precip Events Conditions
12:58 AM 72.0 °F 60.1 °F 66% 30.14 in 10.0 mi NE 13.8 mph - N/A   Scattered Clouds
1:58 AM 71.1 °F 59.0 °F 66% 30.15 in 10.0 mi NE 11.5 mph 20.7 mph N/A   Scattered Clouds
2:58 AM 71.1 °F 59.0 °F 66% 30.15 in 10.0 mi NE 9.2 mph - N/A   Overcast
3:58 AM 71.1 °F 57.9 °F 63% 30.15 in 10.0 mi NE 17.3 mph 28.8 mph N/A   Mostly Cloudy
4:58 AM 70.0 °F 57.0 °F 63% 30.17 in 10.0 mi NE 13.8 mph 23.0 mph N/A   Mostly Cloudy
5:58 AM 69.1 °F 55.9 °F 63% 30.18 in 10.0 mi NE 12.7 mph 21.9 mph N/A   Overcast
6:58 AM 69.1 °F 55.0 °F 61% 30.20 in 10.0 mi NE 11.5 mph - N/A   Mostly Cloudy
7:58 AM 68.0 °F 57.9 °F 70% 30.21 in 10.0 mi NNE 8.1 mph - N/A   Overcast
8:58 AM 70.0 °F 55.9 °F 61% 30.21 in 10.0 mi NE 11.5 mph 23.0 mph N/A   Scattered Clouds
9:58 AM 71.1 °F 57.0 °F 61% 30.23 in 10.0 mi NE 16.1 mph 24.2 mph N/A   Partly Cloudy
10:58 AM 75.0 °F 60.1 °F 60% 30.23 in 10.0 mi NE 15.0 mph 25.3 mph N/A   Partly Cloudy
11:58 AM 73.9 °F 60.1 °F 62% 30.24 in 10.0 mi NE 15.0 mph 20.7 mph N/A   Overcast
12:58 PM 75.9 °F 63.0 °F 64% 30.24 in 10.0 mi NNE 13.8 mph 23.0 mph N/A   Mostly Cloudy
1:58 PM 73.9 °F 62.1 °F 66% 30.22 in 10.0 mi NE 18.4 mph 25.3 mph N/A   Overcast
2:58 PM 75.0 °F 60.1 °F 60% 30.20 in 10.0 mi NE 13.8 mph 24.2 mph N/A   Overcast
3:58 PM 75.9 °F 61.0 °F 60% 30.20 in 10.0 mi NE 11.5 mph 23.0 mph N/A   Overcast
4:58 PM 75.0 °F 60.1 °F 60% 30.20 in 10.0 mi NE 12.7 mph 23.0 mph N/A   Overcast
5:58 PM 73.9 °F 57.9 °F 57% 30.20 in 10.0 mi NE 8.1 mph - N/A   Mostly Cloudy
6:58 PM 72.0 °F 59.0 °F 64% 30.20 in 10.0 mi NE 8.1 mph - N/A   Clear
7:58 PM 71.1 °F 61.0 °F 70% 30.20 in 10.0 mi NE 5.8 mph - N/A   Scattered Clouds
8:58 PM 69.1 °F 61.0 °F 75% 30.22 in 10.0 mi NNE 5.8 mph - N/A   Partly Cloudy
9:58 PM 69.1 °F 61.0 °F 75% 30.23 in 10.0 mi NNE 5.8 mph - N/A   Mostly Cloudy
10:58 PM 70.0 °F 62.1 °F 76% 30.23 in 10.0 mi NNE 5.8 mph - N/A   Overcast
11:58 PM 70.0 °F 63.0 °F 78% 30.22 in 10.0 mi NNE 4.6 mph - N/A   Overcast